Location: Oshawa
(43.9000°N, 78.8670°W)
Time: 17:30:25
(UTC-04:00)

SPOT 5 - Visible Passes

Search period start: 24 April 2014 00:00
Search period end: 04 May 2014 00:00
Orbit: 824 x 826 km, 98.6° (Epoch: 24 April)

Date Brightness Start Highest point End Pass type
(mag) Time Alt. Az. Time Alt. Az. Time Alt. Az.
24 Apr 3.6 21:52:27 28° SE 21:54:52 46° ENE 21:59:59 10° N visible
24 Apr 4.8 23:33:54 22° WSW 23:35:15 25° W 23:39:38 10° NW visible
25 Apr 4.1 21:32:46 20° ESE 21:35:39 32° ENE 21:40:22 10° N visible
25 Apr 4.3 23:14:14 30° SW 23:15:45 36° W 23:20:42 10° NNW visible
26 Apr 4.5 21:13:06 13° ESE 21:16:30 23° ENE 21:20:37 10° NNE visible
26 Apr 3.6 22:54:33 38° SSW 22:56:19 53° W 23:01:35 10° NNW visible
27 Apr 4.9 20:54:12 10° E 20:57:24 16° ENE 21:00:37 10° NNE visible
27 Apr 3.2 22:34:53 39° S 22:36:56 79° WSW 22:42:20 10° NNW visible
28 Apr 3.1 22:15:13 34° SSE 22:17:36 72° ENE 22:22:58 10° N visible
28 Apr 5.3 23:56:40 14° WSW 23:58:20 16° W 00:01:29 10° NW visible
29 Apr 3.5 21:55:33 26° SE 21:58:19 49° ENE 22:03:29 10° N visible
29 Apr 4.9 23:37:00 20° WSW 23:38:46 23° W 23:42:59 10° NW visible
30 Apr 4.0 21:35:53 18° ESE 21:39:06 34° ENE 21:43:54 10° N visible
30 Apr 4.4 23:17:20 26° SW 23:19:15 34° W 23:24:06 10° NNW visible
01 May 4.4 21:16:13 12° ESE 21:19:55 25° ENE 21:24:10 10° N visible
01 May 3.8 22:57:40 32° SSW 22:59:48 49° W 23:05:01 10° NNW visible
02 May 4.8 20:57:24 10° E 21:00:49 17° ENE 21:04:14 10° NNE visible
02 May 3.2 22:38:00 34° S 22:40:24 73° WSW 22:45:47 10° NNW visible
03 May 3.1 22:18:19 30° SSE 22:21:03 78° ENE 22:26:26 10° N visible
03 May 5.4 23:59:46 12° WSW 00:00:15 13° WSW 00:00:00 12° WSW visible
